Location: Geyikbay?r?
(36.8756°N, 30.4583°E)
Time: 06:42:39
(UTC+00:00)

Cosmos-2242 - Pass Details

Date: 05 August 2024
Orbit: 578 x 601 km, 82.5° (Epoch: 10 September)

Event Time Altitude Azimuth Distance (km) Brightness Sun altitude
Rises 19:31:36 0° 347° (NNW) 2,801 7.4 -25.5°
Reaches altitude 10° 19:33:50 10° 342° (NNW) 1,899 6.4 -25.8°
Enters shadow 19:37:41 51° 278° (W) 738 3.6 -26.3°
